Location: Gradaro
(45.0833°N, 10.8833°E)
Time: 07:56:52
(UTC+00:00)

deb Kosmos-2227 - Visible Passes

Search period start: 21 June 2021 00:00
Search period end: 01 July 2021 00:00
Orbit: 807 x 940 km, 70.7° (Epoch: 20 June)

Date Brightness Start Highest point End Pass type
(mag) Time Alt. Az. Time Alt. Az. Time Alt. Az.
21 Jun ? 20:59:56 10° SW 21:05:42 45° NW 21:11:37 10° NNE visible
21 Jun ? 22:50:07 10° NW 22:52:15 12° NNW 22:54:23 10° NNW visible
22 Jun ? 20:54:36 10° SW 21:00:17 41° NW 21:06:06 10° NNE visible
22 Jun ? 22:45:28 10° NW 22:46:58 11° NNW 22:48:27 10° NNW visible
23 Jun ? 20:49:18 10° WSW 20:54:53 37° NW 21:00:36 10° NNE visible
24 Jun ? 20:44:01 10° WSW 20:49:30 34° NW 20:55:04 10° NNE visible
25 Jun ? 02:12:13 10° NNE 02:13:21 10° NNE 02:14:29 10° NE visible
25 Jun ? 20:38:46 10° WSW 20:44:06 31° NW 20:49:33 10° N visible
26 Jun ? 02:06:11 10° NNE 02:08:05 11° NNE 02:09:57 10° NE visible
26 Jun ? 20:33:32 10° WSW 20:38:44 28° NW 20:44:00 10° N visible
27 Jun ? 02:00:21 10° N 02:02:47 12° NNE 02:05:11 10° ENE visible
27 Jun ? 20:28:20 10° WSW 20:33:21 26° NW 20:38:27 10° N visible
28 Jun ? 01:54:36 10° N 01:57:28 13° NE 02:00:19 10° ENE visible
28 Jun ? 20:23:09 10° W 20:27:59 24° NW 20:32:54 10° N visible
29 Jun ? 01:48:56 10° N 01:52:10 14° NE 01:55:22 10° ENE visible
29 Jun ? 20:18:00 10° W 20:22:38 22° NW 20:27:19 10° N visible
30 Jun ? 01:43:16 10° N 01:46:51 16° NE 01:50:22 10° ENE visible
30 Jun ? 20:12:52 10° W 20:17:17 20° NW 20:21:44 10° N visible
